Location: Chiroubles
(46.1812°N, 4.6660°E)
Time: 22:02:12
(UTC+00:00)

Courier 1B - Pass Details

Date: 04 August 2021
Orbit: 963 x 1209 km, 28.3° (Epoch: 25 September)

Event Time Altitude Azimuth Distance (km) Brightness Sun altitude
Rises 21:39:19 0° 250° (WSW) 4,096 10.9 -20.5°
Reaches altitude 10° 21:44:19 10° 223° (SW) 3,100 10.0 -21.0°
Enters shadow 21:46:42 12° 205° (SSW) 2,903 9.6 -21.2°
